Regional Weather Roundup
Issued by NWS

Home | Current Version | Previous Version | Graphics & Text | Print | Product List | Glossary On
Versions: 1 2 3 4 5 6 7 8 9 10 11 12 13 14 15 16 17 18 19 20 21 22 23 24 25 26 27 28 29 30 31 32 33 34 35 36 37 38 39 40 41 42 43 44 45 46 47 48 49 50
000
ASUS45 KABQ 261610
RWRNM
NEW MEXICO REGIONAL WEATHER ROUNDUP
NATIONAL WEATHER SERVICE ALBUQUERQUE NM
1000 AM MDT WED APR 26 2017

NOTE: "FAIR" MEANS FEW OR NO CLOUDS BELOW 12,000 FEET AGL WITH NO
       SIGNIFICANT WEATHER OR OBSTRUCTIONS TO VISION.

      THIS PRODUCT IS RELEASED AS TWO VERSIONS.  ONE VERSION NEAR
      THE TOP OF THE HOUR CONTAINING PRELIMINARY DATA FROM ALBUQUERQUE
      AND OTHER STATIONS.  A FINAL VERSION WITH ADDITIONAL DATA IS
      ISSUED ABOUT 10 MINUTES AFTER THE HOUR.

NMZ501-503-504-510>518-261700-
NORTHWEST PLATEAU/NORTHCENTRAL MOUNTAINS

CITY           SKY/WX    TMP DP  RH WIND       PRES   REMARKS
FARMINGTON     FAIR      50  28  42 W16       29.91S
LOS ALAMOS     FAIR      44  29  57 E7        29.93R
SANTA FE       FAIR      48  30  49 NW6       29.91R
TAOS             N/A     43  25  49 N7        29.93R
ANGEL FIRE     FAIR      35  27  71 W10       29.92R WCI  27

$$
NMZ402-403-502-505>509-261700-
WESTCENTRAL MOUNTAINS/SOUTHWEST MOUNTAINS

CITY           SKY/WX    TMP DP  RH WIND       PRES   REMARKS
GALLUP         FAIR      45  24  43 VRB6      29.99R
GRANTS         FAIR      47  24  40 NW12G23   29.99R
SILVER CITY    FAIR      57  20  24 W7        29.97S

$$
NMZ407-409-411-412-261700-
SOUTHERN DESERTS

CITY           SKY/WX    TMP DP  RH WIND       PRES   REMARKS
DEMING         FAIR      62  20  19 W6        29.94S
LAS CRUCES     FAIR      62  20  19 NW8       29.95R
HOLLOMAN AFB   FAIR      61  22  22 N16       29.95R
ALAMOGORDO     FAIR      59  23  25 NW17G23   29.92S
T OR C         FAIR      59  20  22 N6        29.93R

$$
NMZ519>523-261700-
CENTRAL VALLEYS/CENTRAL HIGHLANDS

CITY           SKY/WX    TMP DP  RH WIND       PRES   REMARKS
ALBUQUERQUE    FAIR      50  31  48 NW8       29.95R
DOUBLE EAGLE   SUNNY     50  28  43 W10G16    29.95R
MORIARTY ARPT  FAIR      53  27  37 NW13G20   29.92R
CLINES CORNERS FAIR      47  25  42 W16G23    29.91S
BELEN          FAIR      52  26  35 CALM      29.94S
SOCORRO        FAIR      56  25  30 E3        29.93R

$$
NMZ524>526-539-540-261700-
SOUTHCENTRAL MOUNTAINS

CITY           SKY/WX    TMP DP  RH WIND       PRES   REMARKS
RUIDOSO        FAIR      46  25  42 NW12G18   29.97R

$$
NMZ527>531-261700-
NORTHEAST HIGHLANDS/NORTHEAST PLAINS

CITY           SKY/WX    TMP DP  RH WIND       PRES   REMARKS
LAS VEGAS      FAIR      47  23  38 W5        29.88R
RATON          FAIR      44  30  57 VRB6      29.83S
CLAYTON        FAIR      44  35  70 N20G28    29.83S

$$
NMZ532>537-261700-
EASTCENTRAL PLAINS

CITY           SKY/WX    TMP DP  RH WIND       PRES   REMARKS
SANTA ROSA     FAIR      51  32  47 CALM      29.87S
TUCUMCARI      FAIR      51  38  60 NE12      29.84F
CANNON AFB     PTSUNNY   48  39  71 N18       29.86S
CLOVIS AIRPORT CLOUDY    46  37  71 N16       29.88R

$$
NMZ028-029-538-261700-
SOUTHEAST PLAINS

CITY           SKY/WX    TMP DP  RH WIND       PRES   REMARKS
ROSWELL        FAIR      58  35  42 N17G24    29.92R
ARTESIA        FAIR      57  36  44 N21G28    29.91R
CARLSBAD       FAIR      61  35  37 N25G35    29.89R
HOBBS          PTSUNNY   55  36  47 N18G28    29.88R


$$



USA.gov is the U.S. government's official web portal to all federal, state and local government web resources and services.